Location: Great Snoring
(52.8667°N, 0.8833°E)
Time: 07:06:26
(UTC+00:00)

ARIANE 5 R/B - Pass Details

Date: 19 May 2025
Orbit: 614 x 648 km, 98.0° (Epoch: 16 June)

Event Time Altitude Azimuth Distance (km) Brightness Sun altitude
Exits shadow 23:01:18 29° 185° (S) 1,135 3.4 -16.3°
Maximum altitude 23:03:22 64° 257° (WSW) 693 2.7 -16.4°
Drops below altitude 10° 23:07:42 10° 340° (NNW) 2,008 6.5 -16.5°
Sets 23:09:56 0° 344° (NNW) 2,925 7.8 -16.6°
